Overview Statistics Trail Chart Weather Telemetry Raw packets
 

This is the latest recevied weather packets stored in our database for station/object IU5GBO-13. If no packets are shown the sender has not sent any weather packets the latest 10 day(s).

<< 14 15 16 17 18 19 20 >>
Time Temp. Humidity Pressure Rain* Wind** Luminosity Snow
1777839376 15° C 71% 1020.4 hPa - - - -
1777838776 15° C 71% 1020.5 hPa - - - -
1777838177 15.56° C 71% 1020.4 hPa - - - -
1777837576 15.56° C 70% 1020.4 hPa - - - -
1777836977 16.11° C 69% 1020.3 hPa - - - -
1777836376 16.11° C 68% 1020.3 hPa - - - -
1777835777 16.67° C 68% 1020.3 hPa - - - -
1777835177 16.67° C 67% 1020.1 hPa - - - -
1777834576 16.67° C 66% 1020.2 hPa - - - -
1777833977 17.22° C 65% 1020 hPa - - - -
1777833376 17.22° C 65% 1020 hPa - - - -
1777832776 17.78° C 63% 1019.9 hPa - - - -
1777832176 17.78° C 62% 1019.9 hPa - - - -
1777831577 17.78° C 61% 1019.9 hPa - - - -
1777830977 18.33° C 59% 1019.6 hPa - - - -
1777830376 18.89° C 57% 1019.6 hPa - - - -
1777829776 18.89° C 55% 1019.6 hPa - - - -
1777829176 19.44° C 56% 1019.6 hPa - - - -
1777828579 19.44° C 55% 1019.6 hPa - - - -
1777827977 20° C 53% 1019.6 hPa - - - -
1777827376 20° C 53% 1019.7 hPa - - - -
1777826777 20.56° C 52% 1019.6 hPa - - - -
1777826176 20.56° C 52% 1019.5 hPa - - - -
1777825576 20.56° C 51% 1019.5 hPa - - - -
1777824976 20.56° C 50% 1019.5 hPa - - - -

* Rain since midnight (hover to see other rain measurements)
** Current wind speed in m/s (hover to see current wind gust speed)